Location: Brede
(50.9167°N, 0.6000°E)
Time: 20:54:24
(UTC+00:00)

Altair - Pass Details

Date: 30 July 2021
Orbit: 1501 x 1682 km, 47.2° (Epoch: 22 September)

Event Time Altitude Azimuth Distance (km) Brightness Sun altitude
Exits shadow 02:48:39 14° 226° (SW) 3,388 8.6 -11.8°
Maximum altitude 02:56:31 53° 155° (SSE) 1,808 7.7 -11.0°
Drops below altitude 10° 03:05:17 10° 82° (E) 3,656 10.3 -10.1°
Sets 03:08:23 0° 78° (ENE) 4,639 11.0 -9.7°
